sat.trackr.live / text

‹ back to catalog

HYDROGNSS-1

NORAD 66762 · 2025-276DA

PAYLOAD ACTIVE UNKNOWN

§ Identity

Operator
Country
ESA
Launch date
2025-11-28
Launch site
AFWTR
Launch vehicle
Mass (kg)
RCS (m²)

External: N2YO · Heavens-Above · Gunter

§ Orbital elements

Epoch: 2026-05-25T03:52:26.065920Z

Period
95.28 min
Inclination
97.4205°
Eccentricity
0.0012418
Mean motion
15.11315037 rev/d
Perigee alt
523.6 km
Apogee alt
540.8 km
Semi-major
6,910.3 km
B*
1.7639e-4
RAAN
218.3346°
Arg perigee
126.1866°
Mean anomaly
234.0515°
Rev number
2,687

§ Raw data

HYDROGNSS-11 66762U 25276DA  26145.16141280  .00002913  00000+0  17639-3 0  99932 66762  97.4205 218.3346 0012418 126.1866 234.0515 15.11315037 26879

JSON: /api/v1/satellites/66762 · /tle

For live sub-satellite position, see the globe view (requires WebGL).

§ Visibility from observer

Set your observer location to see the next 7 days of passes ≥ 10°. The values pass through the URL so the page stays shareable.

No JS? Fill the form by hand. The geolocation button needs JavaScript.